GW1849 Weather Reports


Display with metric or nautical units.
time (UTC)temp
F
wind
direction
speed
MPH
gust
MPH
rain 1hr
in
rain 24hr
in
rain mn
in
humidity
%
barometer
mb
20260506005150 66 216 0.0 0.0 0.00 0.00 0.00 42 1012.5
20260506003946 65 233 0.0 0.0 0.00 0.00 0.00 39 1012.6
20260506002922 65 264 0.0 0.0 0.00 0.00 0.00 40 1012.8
20260506001826 64 228 0.0 0.0 0.00 0.00 0.00 42 1012.7
20260506000746 66 265 0.0 2.0 0.00 0.00 0.00 43 1012.6
20260505235738 65 273 3.0 5.0 0.00 0.00 0.00 42 1012.8
20260505234642 66 267 2.0 2.0 0.00 0.00 0.00 40 1012.4
20260505233727 64 158 0.0 0.0 0.00 0.00 0.00 39 1012.4
20260505232702 64 203 0.0 2.0 0.00 0.00 0.00 40 1012.8
20260505231442 64 296 0.0 2.0 0.00 0.00 0.00 41 1012.7
20260505230406 64 265 0.0 2.0 0.00 0.00 0.00 43 1013.0
20260505225323 67 213 0.0 0.0 0.00 0.00 0.00 43 1012.8
20260505224226 67 250 0.0 0.0 0.00 0.00 0.00 45 1012.9
20260505223219 65 180 0.0 0.0 0.00 0.00 0.00 45 1013.2
20260505222122 64 261 1.0 2.0 0.00 0.00 0.00 50 1013.0
20260505221255 64 273 0.0 2.0 0.00 0.00 0.00 47 1013.5
20260505220034 65 237 0.0 2.0 0.00 0.00 0.00 47 1013.5
20260505215026 65 232 0.0 0.0 0.00 0.00 0.00 45 1013.6
20260505214006 63 220 0.0 0.0 0.00 0.00 0.00 47 1013.5
20260505212939 64 268 1.0 2.0 0.00 0.00 0.00 45 1013.5
20260505211810 64 191 0.0 5.0 0.00 0.00 0.00 47 1013.8
20260505210746 63 125 0.0 2.0 0.00 0.00 0.00 50 1013.8
20260505205650 63 164 0.0 0.0 0.00 0.00 0.00 50 1013.8
20260505204642 62 241 0.0 0.0 0.00 0.00 0.00 51 1013.8
20260505203618 62 259 0.0 2.0 0.00 0.00 0.00 56 1014.0
20260505202702 63 233 0.0 0.0 0.00 0.00 0.00 55 1014.0
20260505201442 61 218 0.0 0.0 0.00 0.00 0.00 55 1013.9
20260505200406 60 281 1.0 2.0 0.00 0.00 0.00 59 1014.2
20260505195354 59 243 0.0 2.0 0.00 0.00 0.00 63 1014.2
20260505194346 57 277 2.0 2.0 0.00 0.00 0.00 65 1013.9
20260505193338 60 235 0.0 0.0 0.00 0.00 0.00 59 1013.9
20260505192438 60 251 0.0 2.0 0.00 0.00 0.00 62 1014.2
20260505191203 57 204 0.0 0.0 0.00 0.00 0.00 67 1013.9
20260505190122 57 245 0.0 0.0 0.00 0.00 0.00 70 1013.8
20260505185026 60 238 0.0 0.0 0.00 0.00 0.00 67 1014.1
20260505183930 57 155 0.0 0.0 0.00 0.00 0.00 66 1013.9
20260505182922 56 194 0.0 0.0 0.00 0.00 0.00 73 1014.0
20260505181858 55 261 0.0 0.0 0.00 0.00 0.00 75 1014.0
20260505180802 55 163 0.0 0.0 0.00 0.00 0.00 79 1013.9
20260505175722 52 237 0.0 0.0 0.00 0.00 0.00 84 1013.8
20260505174847 51 169 0.0 0.0 0.00 0.00 0.00 84 1013.7
20260505173634 49 229 0.0 0.0 0.00 0.00 0.00 88 1013.8
20260505172538 47 186 0.0 0.0 0.00 0.00 0.00 91 1013.8
20260505171458 48 172 0.0 0.0 0.00 0.00 0.00 94 1013.6
20260505170434 46 166 0.0 2.0 0.00 0.00 0.00 94 1013.5
20260505165426 46 183 0.0 0.0 0.00 0.00 0.00 96 1013.6
20260505164330 45 166 1.0 2.0 0.00 0.00 0.00 96 1013.5
20260505163217 45 156 1.0 2.0 0.00 0.00 0.00 96 1013.3
20260505162018 45 147 4.0 5.0 0.00 0.00 0.00 97 1013.3
20260505160850 45 160 0.0 0.0 0.00 0.00 0.00 97 1012.9
20260505152642 44 188 0.0 0.0 0.00 0.00 0.00 98 1012.8
20260505151746 44 184 0.0 0.0 0.00 0.00 0.00 98 1012.7
20260505150450 44 179 0.0 0.0 0.00 0.00 0.00 98 1012.7
20260505124642 42 196 0.0 0.0 0.00 0.00 0.00 98 1011.5
20260505123634 42 198 0.0 0.0 0.00 0.00 0.00 98 1011.2
20260505122806 42 196 0.0 0.0 0.00 0.00 0.00 98 1011.3
20260505121602 42 185 0.0 0.0 0.00 0.00 0.00 98 1011.3
20260505120522 42 200 0.0 0.0 0.00 0.00 0.00 98 1011.4
20260505115426 42 196 0.0 0.0 0.00 0.00 0.00 98 1011.1
20260505114330 42 201 0.0 0.0 0.00 0.00 0.00 98 1011.3
20260505113250 43 185 0.0 0.0 0.00 0.00 0.00 98 1011.2
20260505112226 42 188 0.0 0.0 0.00 0.00 0.00 98 1011.2
20260505111201 43 193 0.0 0.0 0.00 0.00 0.00 98 1011.2
20260505110138 43 177 0.0 0.0 0.00 0.00 0.00 98 1011.5
20260505101857 42 163 0.0 0.0 0.00 0.00 0.00 98 1011.4
20260505101030 42 169 0.0 0.0 0.00 0.00 0.00 98 1011.3
20260505095842 42 185 0.0 0.0 0.00 0.00 0.00 98 1011.6
20260505094806 42 186 0.0 0.0 0.00 0.00 0.00 98 1011.6
20260505093706 42 192 0.0 0.0 0.00 0.00 0.00 98 1011.8
20260505092626 41 190 0.0 0.0 0.00 0.00 0.00 98 1011.6
20260505091602 42 185 0.0 0.0 0.00 0.00 0.00 98 1011.6
20260505090505 42 196 0.0 0.0 0.00 0.00 0.00 98 1011.8
20260505085426 43 191 0.0 0.0 0.00 0.00 0.00 98 1011.9
20260505084546 43 187 0.0 0.0 0.00 0.00 0.00 98 1012.0
20260505083354 43 196 0.0 0.0 0.00 0.00 0.00 97 1012.1
20260505082313 43 202 0.0 0.0 0.00 0.00 0.00 97 1012.0
20260505081307 43 172 0.0 0.0 0.00 0.00 0.00 98 1012.1
20260505080137 43 171 0.0 0.0 0.00 0.00 0.00 97 1012.0
20260505075129 43 188 0.0 0.0 0.00 0.00 0.00 97 1011.5
20260505074121 43 199 0.0 0.0 0.00 0.00 0.00 97 1012.0
20260505073057 43 197 0.0 0.0 0.00 0.00 0.00 97 1012.3
20260505072006 43 200 0.0 0.0 0.00 0.00 0.00 97 1012.5
20260505070938 43 188 0.0 0.0 0.00 0.00 0.00 97 1012.5
20260505065857 43 184 0.0 0.0 0.00 0.00 0.00 97 1012.1
20260505064802 43 180 0.0 0.0 0.00 0.00 0.00 97 1011.8
20260505063737 42 176 0.0 0.0 0.00 0.00 0.00 97 1011.9
20260505062706 43 159 0.0 0.0 0.00 0.00 0.00 97 1011.7
20260505061617 43 189 0.0 0.0 0.00 0.00 0.00 97 1012.0
20260505060537 43 191 0.0 0.0 0.00 0.00 0.00 97 1011.5
20260505055425 43 159 0.0 2.0 0.00 0.00 0.00 97 1011.8
20260505054417 43 175 0.0 0.0 0.00 0.00 0.00 97 1011.6
20260505053407 43 182 0.0 0.0 0.00 0.00 0.00 97 1011.9
20260505052454 43 178 0.0 0.0 0.00 0.00 0.00 97 1012.2
20260505051233 42 168 0.0 0.0 0.00 0.00 0.00 96 1012.1
20260505050121 43 188 0.0 0.0 0.00 0.00 0.00 97 1011.9
20260505040925 42 224 0.0 0.0 0.10 0.00 0.00 96 1012.0
20260505035706 44 257 1.0 2.0 0.10 0.00 0.00 96 1011.5
20260505034641 44 164 0.0 0.0 0.10 0.00 0.00 95 1011.3
20260505033617 44 206 0.0 0.0 0.10 0.00 0.00 94 1010.7
20260505032609 44 144 2.0 5.0 0.10 0.00 0.00 96 1011.5
20260505031545 44 185 1.0 2.0 0.10 0.00 0.00 95 1011.6
20260505030537 44 153 1.0 2.0 0.00 0.00 0.00 95 1011.7
20260505025529 44 167 0.0 0.0 0.00 0.00 0.00 95 1011.9
20260505024521 44 200 0.0 0.0 0.00 0.00 0.00 94 1011.8
20260505023605 44 202 0.0 0.0 0.00 0.00 0.00 94 1011.4
20260505022401 44 187 0.0 0.0 0.10 0.00 0.00 94 1011.1
20260505021321 44 289 0.0 0.0 0.10 0.00 0.00 92 1011.1
20260505020306 44 196 3.0 5.0 0.20 0.00 0.00 86 1010.6
20260505015201 44 238 3.0 5.0 0.20 0.00 0.00 89 1009.5
20260505014153 44 215 4.0 7.0 0.20 0.00 0.00 92 1011.2
20260505013325 44 202 0.0 0.0 0.20 0.00 0.00 94 1012.4
20260505012121 45 172 2.0 2.0 0.20 0.00 0.00 93 1012.1
20260505011253 44 131 2.0 5.0 0.10 0.00 0.00 93 1012.0
20260505010245 44 212 4.0 5.0 0.10 0.00 0.00 91 1012.1